Theta_e
336 332 328 328 327 320 317 315 301 309 304 295 293 296 296 305 304 303 300 305 304 308 312 313 312 313 311 309 315 318 320 316 319 309 308 323 335 337 340 341 341 341 342 344 345 345 345 345 344 344 343 343 343 343 342 341 342 347 349 348 348 347 347 348 348 347 347 346 346 345 345 345 345 343 342 341 341 342 341 340 339 339 338 338 339 340 340 339 340 340 341 341 341 341 342 343 344
326 330 331 323 321 321 313 314 305 299 300 293 294 297 298 301 302 300 301 306 306 308 312 312 310 311 314 312 314 317 319 321 323 321 327 333 336 338 339 339 341 341 343 343 344 344 343 343 344 343 343 343 343 342 341 341 342 343 347 346 346 346 348 347 347 346 346 345 344 344 343 344 344 342 341 340 339 343 342 342 341 339 339 340 339 339 338 339 339 339 339 340 340 340 340 341 342
321 325 319 320 317 315 312 313 299 297 295 290 294 296 299 297 301 305 307 308 310 312 314 315 312 313 312 312 310 315 312 325 325 327 327 334 329 334 339 339 341 343 343 343 343 344 344 343 344 345 343 343 343 342 341 341 342 343 345 346 345 348 347 347 347 346 346 347 346 345 344 343 342 341 339 339 339 339 343 343 341 339 339 339 340 340 340 339 339 338 339 338 339 339 339 340 341
326 325 319 320 312 317 307 306 302 297 298 291 292 297 299 301 304 306 308 310 311 312 313 309 310 316 312 308 311 323 321 321 326 326 325 328 330 335 337 339 340 340 342 344 344 343 343 342 344 344 343 343 342 342 342 342 342 344 347 346 345 346 347 347 346 346 345 344 343 342 341 341 341 341 340 339 338 343 341 341 341 338 337 338 339 339 338 338 338 338 339 339 340 340 340 340 341
320 325 322 319 316 310 310 306 301 299 293 294 291 297 300 305 305 305 306 308 309 310 312 309 312 315 313 314 319 312 317 325 326 329 327 331 336 337 337 339 339 339 341 343 343 343 343 342 344 344 343 343 343 342 342 343 341 342 345 345 344 345 347 346 346 346 343 342 342 342 342 341 339 338 338 338 338 339 339 340 340 340 340 340 339 338 338 339 338 338 338 338 339 339 340 339 339
323 321 331 321 312 317 309 300 299 297 298 299 294 297 301 306 305 306 306 308 309 309 310 309 309 310 310 317 324 318 326 319 326 329 330 330 335 338 337 337 338 337 340 342 343 342 342 341 344 344 343 343 343 342 342 342 342 342 344 344 344 345 346 346 345 345 343 342 341 341 340 340 339 338 338 337 337 338 339 339 340 339 341 341 341 340 339 339 339 340 339 339 340 339 339 339 339
320 319 320 319 317 315 303 298 296 295 296 300 297 299 303 305 306 306 306 305 308 309 310 311 310 307 312 315 323 326 330 330 328 330 333 333 337 337 336 335 334 339 343 344 343 343 344 341 344 343 343 343 343 343 342 342 341 340 340 341 344 346 346 346 345 345 343 341 340 339 339 338 338 338 338 338 338 338 339 339 341 341 341 341 341 339 338 339 339 339 339 340 339 340 339 339 339
325 316 318 307 306 305 299 298 299 297 296 300 302 301 304 306 306 305 304 303 302 304 308 310 309 307 306 315 314 324 330 333 333 334 334 333 338 338 339 335 333 339 342 343 343 343 345 341 344 344 343 342 342 342 342 341 340 340 340 340 340 342 343 343 344 344 344 341 340 338 337 337 337 337 336 335 335 338 338 342 342 342 341 340 339 339 339 340 340 340 340 340 340 340 339 339 339
320 319 321 312 303 306 298 297 297 299 298 301 302 305 310 306 305 304 303 304 304 307 307 307 306 304 304 320 317 324 327 332 334 333 333 334 336 337 338 335 334 339 341 342 343 343 343 340 344 344 344 342 342 342 342 341 340 339 339 339 341 340 341 341 344 344 343 341 339 338 337 336 336 336 337 337 337 338 339 339 338 341 341 341 340 339 339 339 340 339 339 339 339 339 338 339 339
315 311 305 306 307 299 297 297 296 298 299 301 301 303 304 304 305 305 303 301 303 305 308 309 306 303 304 313 318 322 323 332 333 333 334 335 336 337 337 336 337 341 342 342 343 343 343 344 339 343 344 344 343 342 341 341 340 340 339 340 339 339 339 339 343 343 342 342 339 338 337 336 336 337 336 334 338 338 339 339 342 342 342 341 340 339 339 338 338 338 338 338 338 338 338 338 339
308 313 314 306 299 296 296 296 295 299 299 302 301 304 305 305 305 304 303 302 303 306 306 307 303 302 306 320 322 328 330 331 331 330 333 335 336 334 337 338 338 343 342 342 342 343 342 341 341 339 342 342 343 342 342 340 340 340 340 340 339 338 338 337 337 338 340 340 340 339 338 337 336 336 336 336 337 338 337 338 338 340 341 341 339 339 339 338 338 338 339 338 338 338 339 339 339
305 305 311 300 297 296 297 296 297 298 300 300 300 304 304 305 308 303 302 300 302 303 305 305 305 307 306 318 320 326 329 329 330 332 333 334 332 335 338 339 341 343 344 342 342 342 342 342 341 341 336 337 341 342 342 341 340 340 340 340 340 341 342 338 337 338 340 340 340 339 338 337 337 337 337 338 338 338 337 337 337 338 339 339 339 338 338 337 338 338 337 337 336 337 338 339 338
311 311 302 298 298 299 297 297 296 298 297 298 300 303 305 305 304 303 302 302 302 302 303 307 306 304 304 319 324 327 326 328 331 332 332 332 333 335 337 340 340 342 343 342 342 342 342 341 341 340 335 332 333 336 338 340 342 344 344 343 342 341 342 343 338 340 339 339 339 339 338 338 337 337 339 339 337 337 338 337 339 337 338 337 337 337 337 336 337 336 336 335 335 336 337 338 338
312 313 306 298 302 300 298 298 297 295 296 300 301 303 305 304 305 305 303 301 301 304 307 308 308 309 318 321 320 321 325 330 331 332 332 333 332 334 337 338 339 340 343 342 341 342 341 341 340 340 337 338 336 333 333 337 339 341 340 341 342 341 341 342 343 342 341 340 340 338 338 338 338 336 338 340 340 339 339 338 338 339 339 338 337 337 337 336 336 336 335 335 335 335 336 336 337
310 314 307 305 299 300 300 297 295 296 296 301 302 303 304 305 305 304 303 302 302 307 309 313 313 306 303 304 316 321 326 330 332 332 332 334 332 332 338 338 339 339 340 341 343 341 340 340 340 340 339 339 338 337 336 333 334 337 338 339 340 340 339 339 339 337 338 338 336 334 333 333 332 334 338 337 336 335 335 336 337 338 337 337 337 336 335 335 335 335 335 334 334 335 335 335 334
317 310 308 303 297 296 299 297 298 297 296 301 303 304 303 304 305 303 303 304 304 309 307 304 312 307 316 321 318 326 329 331 332 333 332 331 331 333 334 336 336 338 338 338 340 341 341 340 340 339 339 338 338 337 337 335 330 331 334 336 336 336 336 335 334 333 332 330 330 330 329 328 326 327 327 329 331 332 331 330 335 336 335 335 335 335 335 335 334 334 334 334 334 335 335 333 333
317 314 301 299 295 296 297 297 298 294 299 301 303 303 301 301 305 304 304 307 303 303 306 308 307 314 325 326 327 329 330 331 331 331 331 328 328 327 329 329 332 334 338 337 337 338 340 341 341 339 339 338 337 338 338 337 330 329 328 327 330 332 332 331 330 325 324 324 326 325 327 329 328 327 328 330 327 326 324 326 333 335 336 336 335 334 335 335 334 334 334 335 334 332 330 329 328
314 305 301 297 298 296 299 299 299 302 300 300 302 302 302 299 302 304 305 303 304 303 307 309 315 316 328 329 330 330 331 330 331 329 328 327 327 324 325 328 330 330 332 334 336 338 338 340 339 340 338 338 336 338 340 338 334 334 335 332 331 327 325 325 328 330 332 327 325 326 330 329 328 328 327 333 328 327 323 322 326 332 334 333 335 334 334 334 334 333 333 332 332 331 325 322 320
307 302 301 297 300 299 301 301 301 300 299 302 302 302 302 301 302 302 300 299 301 300 305 306 312 314 321 329 329 329 329 329 329 328 327 326 326 325 325 327 328 331 330 332 335 336 337 338 339 338 337 338 336 336 340 337 336 335 335 334 334 330 331 330 331 331 331 331 328 330 329 328 329 327 326 330 329 324 323 322 325 329 332 331 333 334 333 333 333 332 331 330 330 329 322 322 324
305 303 297 301 302 300 302 303 301 302 303 301 301 302 302 302 302 303 301 299 300 299 301 301 309 311 316 326 328 327 329 328 328 327 326 326 326 326 326 327 327 328 331 331 334 337 337 336 338 338 337 337 335 333 337 338 335 335 334 333 333 333 333 332 332 332 331 332 331 331 328 327 329 326 327 329 329 325 322 321 323 325 326 325 326 328 330 332 332 331 329 328 326 323 323 325 324
305 302 300 302 301 299 300 301 301 301 302 302 301 302 301 302 302 301 301 298 298 300 304 303 306 312 319 325 326 326 327 327 327 327 326 326 327 327 327 327 327 327 329 332 333 335 335 336 337 337 337 337 336 333 332 332 334 334 334 333 333 330 332 330 330 330 331 333 331 330 328 325 328 327 324 325 325 327 325 322 322 324 324 322 322 324 325 324 323 322 319 319 320 323 324 321 321
307 301 302 301 302 299 301 300 300 300 301 302 301 299 300 303 302 301 300 297 294 299 303 305 306 315 321 324 324 326 326 326 327 326 326 326 326 326 327 328 330 329 329 329 330 333 334 335 337 336 337 336 335 333 332 331 334 332 334 333 332 331 332 331 330 331 330 330 329 330 328 325 326 324 323 322 324 326 326 325 325 325 325 323 322 324 323 324 322 323 321 322 322 323 322 321 320
299 300 301 301 301 299 302 301 299 299 302 301 299 301 302 300 300 301 301 300 299 304 303 304 313 319 323 326 325 324 325 325 326 326 326 326 327 327 328 328 328 327 328 328 330 331 333 334 336 337 336 335 335 334 333 331 331 334 335 333 332 332 331 331 330 330 331 330 329 328 327 325 325 324 325 324 324 326 325 326 325 325 325 323 322 322 322 322 321 322 322 323 320 320 320 320 320
302 297 299 300 302 300 301 298 300 298 302 300 302 302 300 299 297 301 301 301 302 303 303 304 312 321 324 324 324 325 326 326 326 327 328 327 328 327 328 328 329 328 327 328 328 329 332 333 335 337 336 336 335 334 333 331 332 333 334 332 333 330 330 329 330 331 331 329 328 328 326 326 325 324 324 324 324 324 324 324 325 324 325 323 323 322 322 321 320 320 320 320 319 319 319 320 318
300 298 300 300 300 300 299 298 298 300 299 300 301 300 300 300 299 300 299 301 303 303 304 307 310 318 323 323 323 325 325 326 326 327 328 327 328 329 330 329 330 329 327 328 328 328 331 333 334 335 336 336 336 335 332 331 331 331 332 332 331 330 331 330 330 331 330 329 329 328 325 325 325 324 325 325 324 322 323 324 323 323 323 323 322 321 322 319 319 319 319 319 318 317 317 317 318
302 300 300 300 300 300 299 299 299 300 300 301 299 299 299 299 300 299 301 302 302 304 306 307 309 311 316 320 322 323 325 325 326 326 327 328 329 328 329 328 328 328 328 328 329 329 331 333 333 334 336 336 336 335 333 332 331 331 332 331 332 330 331 331 330 329 329 330 328 328 328 326 326 324 324 324 324 323 323 323 323 322 321 321 321 319 319 319 318 317 318 317 317 317 316 318 317
303 301 301 300 299 299 301 300 299 300 300 300 299 298 299 299 299 295 300 300 301 302 305 305 306 308 310 314 317 320 322 324 325 327 327 327 327 328 328 329 327 327 328 328 329 329 330 332 332 333 334 334 335 334 333 333 333 332 331 332 333 331 330 331 329 329 329 328 329 329 328 327 325 326 324 324 324 323 322 324 322 321 321 321 320 319 318 318 317 317 318 317 316 316 317 317 317
302 301 300 299 300 300 301 300 299 299 298 300 300 298 299 300 298 295 298 300 301 302 305 303 304 304 306 311 314 316 319 322 324 325 325 326 326 326 327 327 327 327 328 328 329 331 331 332 332 332 333 335 334 334 333 334 333 332 332 333 333 333 332 331 329 329 327 329 329 329 329 328 326 325 326 325 324 323 323 323 323 321 321 321 320 319 318 317 317 317 318 318 318 317 316 315 317
301 301 296 297 298 298 299 298 299 301 298 300 300 298 296 296 294 298 299 300 301 301 304 304 303 304 306 308 313 315 316 320 322 323 325 327 327 328 327 328 328 327 328 329 329 330 330 332 333 334 335 334 334 333 334 333 334 335 333 332 332 335 333 333 330 329 329 328 328 328 327 328 327 325 325 326 325 324 323 323 322 322 323 322 321 319 319 317 317 316 316 317 316 315 315 315 316
302 300 297 295 295 295 299 300 299 299 299 300 300 288 291 295 297 298 299 299 300 301 301 303 302 303 306 309 312 315 316 318 321 323 325 326 327 327 326 328 328 328 328 328 329 329 331 333 334 335 335 335 335 334 333 333 333 333 333 332 332 334 333 332 331 331 331 329 329 328 327 327 326 326 326 325 325 324 323 322 322 321 322 321 321 320 318 317 316 314 315 315 315 315 314 315 314
296 298 298 292 290 291 298 299 298 297 299 298 300 289 290 296 297 298 299 299 299 298 298 302 303 304 307 310 312 314 316 318 321 323 325 326 327 327 327 327 328 329 327 328 329 329 330 332 334 334 333 334 333 334 333 333 333 334 333 332 333 334 334 334 332 333 332 332 331 330 329 327 328 327 327 325 325 324 323 322 322 322 322 321 320 319 319 318 317 316 314 315 313 313 313 314 314
296 293 289 294 290 293 297 301 298 295 297 299 297 290 291 295 296 298 299 300 299 297 297 299 302 304 304 307 310 311 315 318 320 323 325 326 327 326 327 327 328 329 329 329 329 330 330 330 332 331 333 333 334 334 334 334 334 333 334 330 333 333 333 334 333 333 332 332 331 331 330 330 329 328 327 328 325 325 325 323 322 323 322 321 321 318 318 317 316 316 315 314 311 311 312 312 313
295 292 290 290 291 291 295 296 300 300 297 298 295 290 294 293 295 297 299 298 298 297 297 298 300 302 304 306 307 308 311 316 318 319 323 325 325 325 327 327 328 329 329 329 329 329 329 330 330 330 332 333 334 336 335 335 335 334 333 334 334 333 333 334 333 334 332 332 332 330 330 329 329 328 327 328 328 327 324 323 323 323 323 321 319 317 316 317 316 316 315 314 313 311 311 311 311
290 293 290 293 291 291 290 296 298 301 297 293 295 291 291 295 296 297 297 298 297 296 296 298 299 298 300 301 304 305 307 311 316 317 320 323 324 326 328 325 327 329 329 329 330 330 330 330 330 330 331 332 332 334 335 335 335 334 333 333 332 332 332 333 332 332 333 332 332 330 330 329 328 329 329 328 327 327 326 325 325 325 324 323 320 319 318 317 317 316 314 314 314 313 311 311 310
288 289 291 291 292 292 290 290 295 298 296 294 293 291 293 294 296 297 297 299 298 296 296 297 297 298 299 300 300 301 302 306 312 317 319 322 324 325 326 327 327 328 329 329 330 330 330 329 329 329 330 330 330 330 332 333 332 333 334 334 332 332 332 331 331 332 330 332 331 330 330 330 328 329 329 328 326 326 325 325 325 325 324 323 322 320 318 317 316 316 315 314 314 314 312 312 312
293 293 292 292 289 290 290 294 297 296 293 292 292 291 292 294 295 297 298 299 298 297 297 298 298 298 298 300 300 300 301 301 305 313 318 321 324 325 324 326 326 327 328 329 328 329 329 329 329 329 329 330 329 329 329 330 330 329 329 329 330 329 331 329 333 331 332 331 331 330 329 329 329 327 328 328 327 326 325 323 323 324 323 321 321 320 318 317 316 314 314 313 313 313 313 313 312
295 295 294 293 292 292 293 294 295 295 294 292 293 292 292 293 294 297 298 298 297 296 295 297 298 299 299 298 301 301 301 301 307 308 310 317 321 324 323 323 324 325 326 327 327 328 329 329 328 328 329 329 328 327 327 326 326 326 327 327 326 327 329 331 332 333 333 332 331 332 332 329 329 328 328 329 330 326 326 324 323 322 322 321 321 321 320 318 319 318 316 314 313 313 313 311 309
295 293 293 292 293 289 294 293 295 295 293 290 293 292 292 293 295 296 298 297 296 297 296 296 298 299 299 300 300 301 303 306 306 304 307 306 305 308 309 315 318 321 322 325 326 327 328 328 328 329 329 329 328 327 326 326 326 325 324 325 325 326 326 326 328 331 332 333 333 332 331 331 331 331 329 329 328 328 327 326 323 323 324 322 321 321 320 317 319 319 319 316 316 314 313 310 309
295 293 292 291 291 292 294 293 295 295 292 289 293 292 292 294 295 297 297 297 298 299 298 298 297 298 299 300 301 303 304 304 304 304 304 304 306 306 305 305 308 316 320 320 322 325 326 327 327 328 328 329 327 327 326 325 325 326 326 325 326 323 325 328 329 328 331 332 332 332 332 333 333 330 329 327 327 329 329 327 325 325 326 324 321 320 317 316 318 320 319 318 316 314 313 310 310
294 292 289 288 292 290 288 291 293 294 293 292 292 291 292 295 296 296 296 297 297 299 298 300 300 299 300 299 301 301 302 302 303 302 302 303 304 303 303 303 303 306 308 316 319 321 324 325 325 327 327 328 328 326 325 326 326 326 326 324 326 326 323 324 326 325 326 330 331 332 332 332 332 332 331 330 329 329 327 327 327 326 325 322 321 320 319 318 318 318 319 319 317 314 310 309 313
295 296 292 291 291 292 292 289 292 293 294 292 291 289 288 291 291 293 294 294 295 297 296 296 297 300 301 303 301 302 300 302 303 302 301 302 303 303 302 303 303 304 305 309 315 319 323 323 324 325 326 326 327 325 326 326 325 323 324 323 323 323 324 323 322 322 324 324 324 325 328 331 332 330 330 330 328 328 328 327 328 327 325 323 322 321 320 320 319 318 318 318 316 315 313 312 312
293 296 298 294 292 292 292 292 289 288 288 292 291 282 281 288 291 293 291 291 293 294 295 296 298 300 301 300 301 304 305 302 302 303 303 303 302 303 304 303 303 303 304 307 312 316 317 320 323 323 323 325 326 325 326 324 322 321 321 320 319 318 317 318 318 318 320 324 326 327 326 326 327 326 329 331 330 327 328 328 328 327 325 324 323 323 322 321 320 319 319 318 315 315 315 314 314
289 291 295 294 293 293 292 291 291 282 280 290 291 282 279 290 290 290 290 291 291 295 295 296 299 300 300 301 302 303 303 303 303 303 304 304 305 305 304 302 302 302 303 306 308 311 314 316 319 321 321 322 324 324 324 323 319 319 320 321 320 320 317 317 319 319 319 320 321 322 323 326 327 325 325 327 327 329 330 329 329 328 327 327 325 324 322 321 321 320 319 318 317 316 315 313 313
287 295 295 294 294 292 292 292 292 290 291 291 291 291 282 282 289 291 291 291 291 292 294 296 298 299 299 300 302 302 302 304 304 303 304 304 305 304 304 305 304 303 303 303 305 308 310 312 315 317 317 318 320 322 322 322 320 318 317 317 319 318 316 315 319 320 321 322 322 322 322 322 322 323 323 322 323 324 324 326 327 327 326 327 324 324 323 324 323 322 319 319 318 316 316 314 313
292 294 298 294 294 294 294 292 289 290 287 283 287 293 281 280 287 292 290 288 289 292 294 295 297 297 299 300 301 301 302 302 304 303 303 303 302 302 303 303 303 304 303 303 303 306 309 311 313 314 316 316 317 319 319 317 318 317 316 315 316 320 321 320 316 319 320 319 316 317 318 318 320 322 321 320 319 320 320 320 320 321 322 323 321 325 324 323 322 320 319 318 317 317 316 316 315
293 296 300 299 298 297 296 289 288 287 284 280 283 288 280 280 289 288 290 288 288 291 294 296 296 297 298 299 300 301 301 301 301 302 302 301 302 302 303 304 305 305 306 308 307 307 308 310 311 312 313 315 315 315 317 316 316 315 315 315 315 317 317 316 315 314 314 315 313 312 314 317 320 321 322 322 322 323 323 324 323 321 318 320 322 323 323 322 322 322 322 321 320 318 318 316 315
296 298 296 294 293 290 289 288 285 283 279 281 287 289 286 279 285 288 287 289 290 292 294 295 296 297 299 299 300 300 301 301 301 301 301 302 302 303 304 304 305 306 306 307 308 309 309 310 310 311 311 314 313 314 315 315 315 315 317 319 320 319 317 315 314 316 317 316 316 316 317 318 319 317 318 318 319 320 320 319 320 321 321 321 320 322 322 321 321 321 322 320 319 318 317 316 314
297 293 290 290 288 288 285 284 284 279 277 282 281 286 287 277 280 291 290 291 292 293 294 295 295 296 297 298 299 300 300 301 301 301 301 302 302 303 303 304 305 306 308 310 308 309 310 310 311 311 311 312 312 312 314 315 315 316 319 319 319 319 319 317 313 314 315 314 313 312 312 311 311 312 311 312 311 312 312 313 313 316 318 318 317 319 318 317 317 316 318 318 318 318 318 317 316
295 292 290 283 281 282 278 282 277 277 277 281 283 284 283 282 287 288 290 292 294 295 296 296 296 297 297 298 299 300 300 301 302 301 302 302 301 302 302 303 303 303 305 308 311 310 310 310 311 312 314 314 313 314 315 316 318 318 317 317 316 315 316 314 311 312 311 310 310 309 307 307 308 309 308 308 308 310 310 311 312 312 312 311 313 316 316 315 315 315 314 313 313 315 317 317 316
292 288 283 281 278 275 272 276 280 280 279 280 282 285 280 284 287 292 291 292 294 295 297 297 297 297 297 298 298 300 300 300 301 302 301 301 301 302 302 302 303 303 303 304 304 307 309 311 312 313 313 315 317 317 317 317 317 317 317 317 315 312 311 310 309 310 310 309 308 307 307 307 307 306 307 307 309 310 310 310 310 310 310 311 311 310 311 313 316 316 315 314 313 314 314 314 314
290 293 290 282 282 277 272 276 273 275 278 280 281 278 278 277 283 290 291 291 293 294 296 297 297 297 297 298 299 299 299 299 299 300 300 300 301 301 302 302 301 302 303 303 303 304 305 305 305 306 309 312 313 313 313 313 313 313 313 312 312 311 310 310 307 307 306 306 305 305 305 306 305 307 306 307 308 307 306 307 307 308 308 309 309 310 311 311 312 313 314 313 313 313 312 311 311
291 293 293 286 284 286 279 281 281 276 275 276 278 277 282 285 290 291 291 291 292 293 294 295 295 296 296 297 297 297 298 299 299 299 300 300 300 300 301 300 301 300 301 302 302 303 303 303 303 303 303 303 304 304 304 304 304 305 304 304 305 305 304 305 306 306 306 305 305 304 304 304 305 304 306 306 305 304 304 304 304 305 306 306 307 307 307 308 307 308 310 311 311 312 311 310 309
288 290 282 286 291 284 279 279 282 280 279 276 280 281 284 288 289 290 290 289 291 292 293 293 294 295 295 296 296 297 298 298 298 298 298 299 299 299 299 299 299 299 299 300 300 300 301 301 301 301 301 302 302 303 304 304 304 303 303 303 303 304 304 303 304 303 303 303 303 304 303 303 304 304 304 303 302 302 303 302 302 303 303 304 304 304 305 305 305 305 305 305 306 308 308 308 309
289 281 287 292 292 290 284 278 278 278 274 276 279 277 279 281 280 288 288 287 289 290 291 293 294 294 295 296 296 298 298 297 297 298 297 298 297 298 298 298 298 299 299 299 299 299 300 300 300 300 300 300 300 301 302 302 301 301 301 301 301 302 302 302 302 302 302 302 301 301 301 301 300 301 301 302 300 300 300 299 300 300 300 301 300 301 300 301 302 301 302 301 301 302 302 304 306
290 287 294 288 280 279 282 281 273 273 273 275 278 278 279 280 284 285 286 287 288 290 291 292 293 294 295 296 297 297 296 297 297 297 298 298 297 297 297 297 298 298 298 298 299 300 300 299 299 299 299 299 299 300 300 300 300 301 300 299 299 299 299 299 299 300 299 299 298 298 298 298 298 298 299 298 298 297 297 297 297 296 297 297 297 297 298 298 297 300 298 297 298 298 297 298 300
295 294 288 291 286 283 280 279 280 280 274 274 275 278 275 285 286 287 288 290 290 291 291 292 293 295 296 297 296 296 296 296 297 298 297 298 297 297 297 298 298 298 298 298 298 299 299 299 299 298 298 298 298 298 298 298 298 298 298 298 298 298 298 298 297 297 297 297 297 296 295 295 297 297 296 296 294 294 294 294 294 295 295 295 296 296 296 296 297 297 297 298 297 295 295 297 298
286 285 284 286 286 287 284 284 281 278 275 274 275 274 278 284 290 290 291 292 291 292 293 293 294 295 296 297 297 297 297 297 297 297 297 297 296 296 297 297 297 297 297 297 298 298 298 298 298 297 297 297 297 297 297 297 297 297 296 296 296 297 297 297 296 296 296 295 295 295 295 294 293 294 292 292 292 292 292 292 293 294 293 294 294 295 294 293 293 293 294 293 293 293 293 295 295
288 287 284 287 283 282 279 278 284 280 280 276 276 273 281 291 288 290 290 293 293 293 294 295 295 296 297 298 297 297 297 297 297 296 296 296 295 296 296 296 295 296 296 297 298 297 297 297 297 296 296 296 296 296 296 297 296 297 296 296 296 295 296 295 295 294 294 293 292 292 291 290 291 291 291 291 291 291 291 292 292 292 292 292 291 294 292 292 293 292 292 295 295 292 292 293 291
Wind_Speed
8 7 7 8 9 5 3 2 2 2 2 4 4 1 2 3 3 5 5 6 6 3 3 5 6 6 6 2 12 12 10 6 4 1 2 3 3 9 12 11 9 10 10 8 7 6 5 8 10 10 10 9 10 10 9 8 7 12 13 13 13 14 14 14 14 14 13 14 15 14 14 15 14 14 14 13 15 14 15 15 15 15 15 15 15 16 16 16 16 15 15 15 15 15 15 16 16
7 8 9 6 3 2 2 1 1 3 3 2 5 6 2 4 3 6 4 8 6 3 2 4 4 4 1 3 6 7 12 11 10 9 8 7 9 9 11 11 9 12 9 7 7 7 6 6 9 10 10 10 9 9 8 7 8 9 13 13 13 14 13 13 14 14 13 15 14 13 13 13 14 13 13 12 14 16 15 16 15 14 15 15 16 15 15 16 16 15 15 15 15 14 14 15 15
7 9 5 6 3 2 3 1 2 4 3 5 3 4 4 4 6 10 11 9 8 6 5 4 4 2 4 4 7 6 5 9 10 10 7 7 9 8 10 11 10 11 11 6 7 7 6 6 8 10 11 10 10 9 7 6 6 8 12 12 13 14 13 14 14 14 13 14 14 13 13 13 13 13 12 13 13 14 17 15 14 14 14 15 15 15 16 16 15 15 14 14 15 14 14 14 15
6 8 6 2 2 2 1 1 3 6 1 5 5 4 3 6 9 10 7 7 5 4 2 2 1 0 4 8 5 10 7 6 6 7 7 8 7 10 13 12 10 9 8 7 7 7 6 7 9 10 11 11 10 9 9 8 9 13 14 12 13 13 14 13 13 12 13 13 13 12 12 12 13 13 14 14 13 16 14 13 13 14 13 14 14 15 15 15 15 15 14 14 14 15 14 14 14
4 6 1 3 1 2 2 2 3 3 4 3 5 4 3 10 10 8 6 5 4 3 1 3 2 1 3 4 5 2 4 6 5 4 4 7 12 9 12 11 9 9 9 9 8 7 7 9 8 10 12 11 10 9 9 8 10 11 12 12 12 13 14 13 13 12 14 13 13 13 13 14 13 13 12 12 12 13 12 13 13 14 13 14 14 14 15 15 15 14 14 14 13 14 13 13 13
7 7 2 0 1 0 1 2 3 1 2 2 5 4 4 10 10 9 7 7 4 4 4 0 4 2 3 6 4 3 2 3 4 8 7 8 13 13 11 8 9 10 10 9 9 7 7 8 8 10 12 11 10 9 9 11 11 10 11 11 11 13 13 13 13 13 14 14 13 13 13 13 14 13 12 11 12 13 12 13 13 13 13 13 14 14 13 13 13 13 13 13 13 13 13 13 12
3 2 1 1 1 1 2 4 5 4 3 3 4 4 7 9 9 9 7 5 4 4 2 2 1 1 6 2 6 4 6 3 5 6 5 9 12 11 8 8 8 12 10 8 8 8 8 9 10 11 11 10 9 9 10 10 11 10 10 10 12 13 14 14 14 13 14 13 13 13 12 12 12 14 14 12 12 12 12 12 13 13 13 13 13 12 13 13 13 13 13 13 13 13 12 12 12
1 1 1 1 2 1 3 5 2 4 1 4 4 5 8 9 7 6 6 4 3 3 2 3 0 2 3 5 5 1 4 8 12 11 9 8 12 8 5 8 9 12 10 8 8 7 9 10 11 10 10 10 9 10 10 10 9 8 8 9 10 11 12 14 14 13 12 13 13 12 12 11 11 12 10 9 11 11 12 14 13 12 13 13 13 12 13 13 13 12 13 13 13 12 12 12 11
2 0 1 1 2 1 3 5 3 4 4 2 3 4 8 6 5 6 4 5 4 6 5 3 4 0 2 10 7 4 3 8 11 9 7 8 11 8 6 8 10 11 10 8 9 7 6 10 10 10 9 9 9 10 10 10 9 8 8 8 10 10 12 13 14 13 12 12 12 12 12 10 9 11 11 10 11 10 10 10 11 14 14 13 13 13 13 12 12 12 12 12 12 12 11 12 11
1 2 0 1 2 3 3 4 3 3 4 3 4 3 4 3 5 5 6 5 5 5 5 2 2 2 3 10 9 4 2 8 9 8 6 9 8 7 6 7 11 13 10 9 8 7 6 9 10 9 9 9 9 9 10 10 9 9 9 10 10 11 11 11 12 13 12 12 11 11 11 10 9 10 10 9 12 11 11 11 13 13 13 12 12 12 12 12 11 12 12 12 11 10 11 10 10
2 1 0 1 3 4 4 1 5 3 5 4 4 3 2 1 3 5 3 7 5 4 3 4 2 3 2 6 5 2 3 7 9 9 9 9 6 8 7 6 9 12 10 9 8 8 7 7 10 9 9 9 9 9 9 9 9 9 9 10 9 10 9 9 9 9 11 11 10 10 10 10 9 8 9 10 11 10 9 10 10 12 12 12 13 13 12 12 12 12 12 11 10 10 10 9 9
2 2 1 2 4 4 3 3 5 5 5 5 3 3 0 2 1 4 7 5 3 6 4 4 1 1 4 5 3 4 5 6 9 8 7 9 5 6 9 5 6 11 10 9 9 9 7 7 5 8 10 10 9 8 7 7 8 8 8 8 10 10 9 8 9 10 10 10 10 10 10 10 10 10 10 10 10 11 9 8 9 11 11 12 12 12 12 11 11 11 10 9 9 9 9 8 8
1 2 2 3 2 3 2 3 4 5 4 4 5 2 1 3 2 4 4 7 3 5 5 2 3 1 2 4 3 6 7 6 9 8 5 6 7 5 6 8 5 10 10 8 9 9 9 7 7 5 7 11 9 9 8 8 7 7 7 8 9 10 9 9 9 10 10 10 10 10 9 8 9 11 11 9 10 10 9 8 7 9 9 10 12 12 11 11 10 9 9 8 8 8 8 8 7
1 2 3 3 3 1 3 2 5 4 2 5 4 4 3 2 1 2 5 5 2 4 2 4 1 0 7 6 4 5 7 8 10 7 4 4 6 8 7 7 5 7 7 8 9 9 8 8 7 7 7 6 6 7 8 9 7 8 8 8 9 9 9 8 9 10 10 10 9 8 8 8 10 10 10 10 9 8 9 12 12 13 14 13 12 11 10 9 8 8 8 7 7 7 7 7 7
1 2 1 2 2 0 1 0 5 4 3 5 4 5 2 4 2 4 6 5 6 3 2 3 2 1 0 2 6 7 9 11 10 8 4 3 4 5 9 8 5 5 6 7 8 7 7 8 8 7 6 6 6 5 4 6 9 8 8 8 8 8 8 8 8 10 10 10 9 8 7 9 9 9 9 9 9 9 9 9 11 9 11 11 11 10 9 9 8 8 7 7 6 6 6 6 6
1 2 0 1 3 3 1 2 2 3 3 5 6 6 4 2 4 2 2 3 3 2 1 2 2 2 4 7 8 12 11 12 9 8 6 5 4 5 8 7 5 5 2 6 7 6 7 7 7 6 6 7 6 6 6 5 7 9 8 8 8 8 8 8 8 9 10 9 9 8 8 5 7 7 10 8 10 10 10 8 9 9 9 9 8 8 8 8 7 7 6 6 6 6 6 6 6
0 0 1 2 4 4 3 3 2 2 6 4 6 5 4 3 1 2 3 0 5 2 1 3 2 1 8 7 13 15 11 11 9 7 5 5 5 6 5 5 5 4 3 3 5 5 6 6 7 6 5 8 6 8 7 6 6 9 7 7 8 8 8 8 9 8 8 7 7 8 8 4 4 4 5 5 8 6 8 9 9 9 8 8 8 7 7 7 6 6 6 7 5 5 5 5 5
1 1 2 4 4 5 6 2 3 6 6 5 6 6 6 4 2 2 1 1 4 4 6 4 9 8 7 9 10 11 11 11 10 9 6 5 4 4 5 4 5 4 4 4 3 5 5 6 5 5 6 6 5 7 6 5 6 6 6 5 4 5 5 7 6 4 5 3 6 5 4 4 5 3 4 6 5 5 6 8 8 7 7 7 6 6 6 6 6 5 5 3 0 2 5 2 2
2 2 2 4 2 3 4 4 6 3 5 6 5 5 4 6 6 3 2 3 5 4 5 5 8 6 5 8 10 10 10 10 11 9 9 8 6 8 4 5 6 6 4 4 4 5 6 7 6 6 5 5 5 4 6 6 6 5 6 5 5 6 5 4 3 5 4 4 3 4 5 4 3 4 4 5 5 8 6 7 7 7 7 8 8 8 6 5 5 4 3 1 3 2 2 2 3
4 2 4 1 1 5 7 7 4 5 9 7 5 3 2 8 4 3 1 6 5 5 7 5 7 8 8 9 10 10 9 9 10 11 11 10 8 9 7 6 5 7 6 4 5 4 6 6 6 6 6 6 5 4 7 6 5 5 6 5 5 5 5 3 3 4 3 5 4 5 3 4 5 5 8 11 9 5 5 6 7 7 7 8 9 6 6 5 5 3 2 2 3 3 4 4 6
2 4 2 2 3 5 4 5 5 4 3 7 5 3 4 3 3 4 4 6 3 4 10 10 10 12 11 12 11 9 10 10 9 9 10 9 6 7 7 8 6 5 7 6 5 4 5 5 5 5 5 6 5 5 3 6 6 5 6 6 6 5 6 5 4 4 3 5 5 3 2 3 5 5 4 5 4 5 4 3 3 3 3 3 5 3 4 3 3 2 1 1 3 4 6 2 1
0 1 0 4 3 6 3 4 5 3 4 7 6 5 4 3 3 3 3 2 2 2 3 2 6 15 14 13 10 9 10 10 9 10 11 11 9 8 7 7 7 5 7 6 6 6 6 5 6 4 5 4 5 6 5 3 6 6 5 6 6 5 7 6 3 5 2 3 2 2 4 2 0 6 4 3 4 5 6 5 5 5 4 3 3 3 4 4 4 5 3 4 5 6 1 1 2
2 1 1 3 3 6 1 2 3 3 3 6 5 3 6 4 3 4 2 2 2 2 2 4 8 13 13 11 11 10 10 10 10 10 10 11 10 7 7 7 7 6 7 6 6 5 6 4 5 4 4 5 4 5 6 3 5 2 4 6 5 1 4 6 4 5 5 4 3 1 4 3 3 5 4 4 4 5 6 6 6 5 4 5 4 4 3 3 2 3 5 5 3 1 1 1 1
3 2 4 3 3 6 5 3 0 2 2 3 2 4 4 4 4 1 0 7 5 2 3 5 7 12 13 12 10 13 12 12 11 9 9 10 10 8 7 7 6 4 6 5 5 4 7 6 5 5 4 5 4 3 4 5 4 3 2 5 5 5 2 3 6 5 4 6 3 3 3 4 4 3 4 3 3 1 4 4 4 4 4 4 6 3 3 1 2 3 1 0 1 0 1 0 2
6 2 4 3 5 3 4 4 1 2 4 1 4 3 1 1 1 0 2 5 6 4 5 5 4 10 10 10 10 9 10 9 9 9 6 5 6 6 5 5 7 6 6 5 5 4 6 6 6 6 5 6 5 4 3 3 5 3 3 4 3 3 2 1 2 5 5 6 5 2 3 2 4 3 5 4 4 3 2 2 1 3 4 4 4 1 4 3 2 2 1 1 1 3 3 3 4
6 4 5 4 5 5 3 4 3 3 2 1 2 3 3 3 3 1 2 7 6 5 5 5 5 4 7 10 9 9 9 10 9 9 9 6 6 7 6 4 6 8 7 6 5 4 4 5 6 7 6 6 7 5 5 3 5 5 4 4 4 2 1 3 2 3 6 6 6 4 2 2 2 3 4 5 4 4 2 3 1 1 3 3 4 2 2 3 3 3 2 2 3 4 3 4 5
4 7 5 8 6 4 3 4 3 2 3 1 2 4 2 1 2 1 3 5 6 4 5 4 5 6 4 6 7 7 8 9 10 8 7 6 6 8 7 6 5 6 8 7 7 6 5 6 4 5 6 5 5 5 5 4 4 4 3 3 5 6 5 4 2 1 1 4 6 6 4 2 3 2 3 4 4 4 3 3 3 2 3 3 4 3 3 3 3 3 4 3 3 3 5 4 4
9 8 8 6 4 3 2 5 4 3 2 1 2 2 4 1 2 2 4 4 5 6 5 4 5 5 6 5 6 6 6 7 7 7 10 9 7 7 7 8 6 5 8 8 7 7 6 7 6 4 4 5 5 5 4 4 5 4 4 3 5 6 6 4 3 3 3 1 1 6 4 4 3 3 1 2 3 4 4 4 4 4 4 4 4 4 3 3 2 2 2 2 1 1 3 3 4
7 9 5 3 4 4 3 4 3 2 1 1 1 3 2 4 5 4 6 5 5 5 6 6 5 5 5 5 6 5 5 7 7 6 8 7 6 7 9 8 8 6 5 8 8 8 7 8 8 7 5 5 5 5 5 4 4 4 4 3 2 4 5 5 3 2 3 2 2 2 4 5 4 3 2 1 0 1 3 4 4 4 5 4 4 4 3 3 1 1 1 1 2 3 4 4 4
4 3 6 4 3 3 3 3 4 1 1 1 1 1 6 11 4 6 5 6 4 4 5 5 5 5 5 5 6 5 5 6 7 7 7 7 7 7 7 7 8 7 5 5 7 8 6 6 6 6 8 6 7 5 5 5 4 4 5 5 3 4 5 5 5 3 1 4 4 3 1 2 2 3 2 1 1 1 2 2 3 3 3 3 4 4 3 3 3 3 4 4 5 5 5 5 4
6 4 6 3 5 3 5 3 4 2 1 2 0 2 6 5 5 4 4 4 6 5 5 6 5 5 5 5 5 5 6 5 7 7 6 7 7 6 7 6 7 7 5 4 7 8 7 7 7 6 8 7 7 6 5 5 4 5 5 6 6 3 4 5 5 5 4 3 2 3 2 2 1 2 3 3 2 3 3 3 3 5 3 3 4 4 4 4 5 5 4 4 4 5 5 6 4
3 6 4 3 6 1 3 1 7 4 1 4 1 2 4 4 3 3 3 2 4 5 6 7 6 6 6 5 5 5 6 6 6 6 6 6 7 6 8 8 8 8 7 6 6 7 8 7 8 6 8 8 8 8 5 5 5 4 5 6 5 4 5 5 5 5 5 5 3 1 3 4 2 1 2 1 2 3 4 4 4 4 4 4 5 4 4 4 5 5 4 4 4 5 5 6 5
3 5 4 5 5 3 1 4 1 5 4 1 5 3 3 0 4 3 2 4 3 4 4 6 6 8 7 6 5 5 5 6 6 6 7 7 6 5 7 7 9 9 7 7 7 7 8 8 10 8 10 10 8 9 7 6 6 5 4 5 5 5 5 5 4 4 3 3 4 4 4 3 2 3 3 2 3 3 3 4 4 4 4 4 4 3 4 4 4 4 5 5 5 6 5 5 5
4 3 3 4 6 5 2 1 1 2 3 4 4 4 2 3 5 3 4 4 4 4 4 5 5 5 7 7 7 6 6 6 8 8 9 8 6 6 7 7 7 8 7 7 7 8 8 8 9 9 7 9 7 8 9 7 6 5 5 4 4 5 4 5 5 4 4 4 4 4 3 4 5 6 6 4 5 6 4 4 4 4 4 5 5 5 6 6 6 5 6 5 6 5 5 5 5
4 4 1 4 3 7 4 6 6 4 3 2 5 5 8 4 5 6 7 6 5 5 5 5 5 5 5 6 6 7 7 7 8 8 8 9 8 7 6 7 6 8 7 7 7 7 6 6 7 8 7 8 8 7 7 6 5 4 4 4 4 4 4 4 4 5 6 6 5 5 6 6 6 6 6 7 6 6 5 5 4 4 3 5 5 5 4 5 5 6 6 5 4 6 6 5 6
6 6 5 4 6 4 4 0 1 4 3 3 5 7 7 6 5 5 6 7 7 5 4 3 3 5 5 6 5 6 6 7 5 9 10 8 8 8 6 6 6 7 7 8 7 7 7 5 6 7 6 6 6 5 6 6 6 6 5 4 4 5 5 5 5 5 5 6 6 6 6 6 6 7 7 7 7 7 6 6 7 7 6 4 5 5 5 6 6 5 5 5 5 4 5 6 6
8 9 6 5 5 3 2 2 0 1 1 7 7 5 5 4 5 8 10 7 6 5 5 5 4 3 4 4 6 6 7 4 3 5 6 7 7 7 5 5 5 5 5 7 7 7 8 8 7 9 8 7 7 7 6 6 6 6 5 6 6 5 6 6 7 6 6 5 5 7 8 7 8 9 8 8 7 6 6 6 6 5 5 5 5 7 7 6 6 6 6 5 6 6 5 5 3
8 9 8 5 6 3 1 2 1 2 2 4 7 6 6 5 5 3 7 8 8 7 6 5 6 6 5 6 5 6 4 3 3 5 4 5 5 5 5 5 6 7 6 6 7 8 7 7 7 6 8 7 7 7 7 6 5 6 5 6 5 6 6 6 6 7 7 7 6 5 5 6 6 7 7 6 6 6 6 5 5 5 6 6 7 8 6 6 5 4 3 4 5 7 5 3 3
3 8 8 6 4 5 3 3 1 1 2 2 2 3 5 4 4 5 5 8 7 9 8 6 7 7 6 6 5 5 5 5 3 4 4 4 4 3 3 2 3 5 5 5 5 5 6 6 6 6 7 8 7 7 7 6 5 6 6 6 7 5 5 6 7 6 7 7 7 7 7 6 5 6 7 7 7 6 6 6 6 7 6 6 7 7 5 4 4 5 5 5 5 3 4 2 4
0 4 7 6 5 6 1 1 2 1 0 0 2 2 5 4 5 6 6 6 3 4 4 3 2 2 1 3 2 4 5 5 5 5 6 5 5 4 4 3 4 3 3 5 5 6 6 6 5 6 6 6 7 6 6 5 5 5 6 5 6 6 3 1 1 2 4 6 7 7 6 6 7 7 7 7 7 6 6 7 6 6 7 5 6 6 5 5 4 5 6 7 6 6 3 5 5
1 0 2 4 6 1 3 5 3 1 0 1 2 4 5 6 6 6 2 2 4 2 2 1 1 0 1 1 0 1 1 2 2 3 5 6 5 5 5 4 4 5 4 4 5 5 5 6 5 6 6 6 6 7 6 5 6 5 4 3 3 1 1 2 1 1 0 1 1 3 6 6 6 5 4 6 7 7 7 6 7 6 4 3 3 5 6 6 6 5 6 6 6 7 7 3 3
2 1 0 3 5 9 8 8 6 2 2 3 2 1 4 7 13 12 4 2 2 2 3 3 3 1 1 1 2 3 2 1 1 0 2 4 4 5 4 4 4 3 4 1 2 4 4 5 5 5 4 5 6 6 7 5 5 5 5 5 4 3 3 2 3 3 3 3 5 4 3 3 3 4 4 4 5 5 6 7 6 5 5 5 5 6 7 6 6 6 7 7 6 5 7 7 7
4 3 0 4 8 10 9 8 4 2 2 1 1 6 4 3 3 5 4 4 4 2 3 4 5 5 4 3 4 4 4 4 1 0 0 2 1 4 4 4 4 3 2 1 1 1 2 4 5 5 4 4 5 6 6 6 4 4 5 5 5 5 4 3 3 3 2 1 0 1 4 4 2 1 1 1 1 4 5 5 5 6 7 6 6 6 6 6 6 8 7 7 8 7 5 8 8
2 1 2 7 10 9 7 8 4 1 1 1 1 0 2 3 5 3 7 6 5 3 5 4 4 5 4 4 4 3 3 4 4 4 2 3 2 4 5 4 3 3 3 2 1 0 3 3 4 4 4 4 4 5 6 6 6 4 4 4 5 4 5 2 2 3 2 1 0 2 3 3 2 1 0 1 1 1 0 2 3 3 4 5 5 5 6 6 7 5 4 4 4 5 6 7 8
1 1 4 5 8 5 5 6 2 1 1 1 1 1 0 3 4 1 5 4 5 6 7 5 5 5 4 4 4 3 4 2 2 4 4 4 3 4 4 4 4 4 3 3 2 1 1 3 4 4 4 4 3 5 5 4 4 4 3 3 3 2 1 1 1 3 5 5 4 5 4 4 4 4 3 2 2 1 1 2 2 3 3 3 3 4 4 5 5 5 4 5 5 6 6 8 7
3 3 0 5 5 4 4 3 4 0 2 4 5 3 2 5 2 2 1 2 5 7 8 8 6 5 5 4 4 5 4 3 4 5 4 4 4 4 5 4 4 3 3 4 4 4 3 3 4 4 4 4 3 3 4 4 3 3 3 3 3 2 1 1 3 3 3 3 3 2 3 5 6 6 4 3 3 3 4 4 5 4 4 3 3 3 3 3 3 4 5 6 7 8 6 6 7
4 2 7 6 5 3 2 3 3 2 1 3 0 0 1 2 4 7 6 6 5 5 4 4 5 4 4 4 4 5 4 4 4 4 4 4 4 4 5 5 4 3 4 4 3 4 4 4 4 5 4 5 3 3 4 4 2 3 3 3 3 3 3 3 2 0 1 2 1 2 2 4 3 2 2 2 1 3 3 4 4 4 4 4 5 4 4 3 4 4 4 4 5 6 5 5 6
6 2 4 7 5 3 2 1 2 2 3 0 3 1 1 5 4 0 1 1 2 5 9 9 6 6 5 4 4 5 5 5 5 5 5 5 4 4 4 5 5 4 4 5 4 4 5 6 7 6 5 5 4 4 5 4 3 4 4 4 3 2 2 2 1 2 3 2 2 2 2 2 1 2 2 1 2 3 3 3 3 3 3 2 4 4 4 4 5 4 3 3 4 4 5 6 6
1 6 6 9 2 2 0 1 1 3 3 1 0 1 2 7 6 2 2 2 0 2 7 8 8 6 5 5 5 4 5 5 5 4 4 4 4 4 5 5 5 5 4 5 6 5 5 6 7 7 5 3 3 4 6 5 5 4 5 5 6 5 5 4 3 3 3 0 0 0 2 2 3 5 4 3 3 4 4 4 4 4 3 3 3 3 3 4 5 5 5 5 4 4 4 5 5
3 8 6 6 3 2 3 1 2 0 1 3 0 2 2 3 4 6 5 2 3 5 6 7 8 8 6 6 5 4 4 5 4 4 4 4 4 4 5 5 5 4 5 4 4 5 5 6 7 8 7 4 3 5 6 5 5 5 4 4 4 3 4 3 2 1 1 0 1 2 2 1 2 2 3 4 4 5 5 5 5 5 5 5 5 4 3 4 4 4 5 5 6 6 5 5 5
5 3 6 5 6 3 3 4 5 5 3 0 3 2 6 4 4 1 2 4 5 5 6 6 6 6 5 5 6 5 5 4 4 4 4 4 5 5 5 5 4 4 5 4 4 5 6 6 6 7 8 7 6 5 4 4 4 4 3 3 3 3 3 4 2 2 2 2 3 3 2 3 4 4 5 4 5 6 4 5 5 5 5 5 5 6 6 4 3 4 4 4 5 4 5 5 5
1 1 3 1 3 1 5 1 2 4 2 1 0 5 2 2 1 2 2 5 5 5 5 6 5 5 5 5 5 5 5 5 5 5 5 5 5 5 5 5 5 5 5 5 5 5 5 5 6 6 6 6 6 6 5 5 5 5 4 5 4 4 3 3 5 5 5 4 4 3 3 4 4 5 5 5 4 4 4 4 4 4 5 5 5 5 5 5 5 5 4 4 5 4 5 6 6
4 3 3 3 1 9 5 1 0 0 2 5 3 3 6 2 1 2 3 4 3 2 4 4 5 5 5 5 5 5 5 5 5 5 4 5 5 5 4 5 5 5 5 5 5 5 5 6 6 7 6 6 6 5 6 6 5 6 5 5 5 5 6 5 5 4 4 4 4 5 5 5 5 5 4 4 4 4 4 4 4 4 4 4 4 5 5 5 5 5 5 5 5 5 5 5 6
4 1 6 2 1 3 3 2 0 0 3 3 5 6 3 3 5 1 2 4 4 5 5 5 5 5 5 5 5 5 5 5 5 5 5 5 5 5 5 5 5 5 5 5 6 5 5 5 6 7 6 7 6 6 6 6 6 6 5 6 6 6 5 5 4 5 5 6 6 6 5 6 5 4 4 4 4 4 4 5 4 5 4 4 4 4 4 4 5 6 5 5 4 5 5 5 5
2 4 1 4 1 2 1 1 1 1 2 2 2 5 3 7 5 3 6 6 7 6 5 6 6 6 5 5 5 5 5 5 5 5 4 4 5 5 5 5 5 5 5 5 5 6 6 6 6 6 7 6 6 6 5 6 5 5 5 6 6 6 5 5 5 6 6 6 6 6 5 5 4 4 6 5 5 5 6 6 5 5 4 4 4 4 4 4 4 5 5 5 4 4 5 5 5
0 0 2 1 1 0 4 5 2 6 3 2 4 2 3 5 4 11 11 12 10 8 7 8 9 8 7 6 6 6 6 5 5 5 5 5 5 4 4 5 5 5 5 5 5 5 6 5 6 6 7 7 7 7 6 7 6 6 6 6 6 5 5 6 5 6 6 6 5 5 4 5 5 5 5 5 5 5 5 5 5 5 5 5 5 5 5 5 6 5 5 5 6 4 5 5 6
2 1 2 1 0 1 2 2 3 3 2 3 2 2 6 7 3 11 13 13 13 13 13 8 8 7 6 7 8 7 6 6 5 5 5 5 5 5 5 5 5 5 5 5 5 5 5 6 7 6 8 7 8 6 6 6 6 7 8 8 7 6 7 6 7 6 6 5 5 5 5 4 5 5 4 4 5 4 4 4 5 5 5 5 5 5 5 4 4 4 5 4 4 5 5 5 5
5 6 5 7 6 4 4 6 0 1 2 3 2 6 2 1 3 2 3 8 10 10 11 10 8 8 8 8 7 7 6 5 5 5 5 5 5 5 4 4 4 5 5 5 5 6 6 6 6 6 7 7 7 6 6 6 6 7 8 7 7 5 6 6 6 5 6 5 5 5 4 4 4 3 4 4 5 4 5 5 5 5 5 5 5 5 5 4 5 5 6 4 5 5 5 6 5
Wind_Direction
291 268 245 232 233 247 311 223 272 213 206 233 146 104 88 104 117 109 102 165 103 30 43 59 34 44 34 18 87 74 27 45 7 247 106 148 156 94 119 119 119 114 108 112 117 113 106 90 96 97 95 90 84 77 66 68 89 94 87 89 85 83 84 89 89 86 84 80 80 77 77 81 79 79 77 73 80 79 79 77 68 69 73 73 75 75 73 69 69 69 70 69 69 69 70 70 68
281 260 233 240 244 51 272 125 288 262 216 134 53 77 112 83 220 126 117 60 70 96 86 67 71 73 292 44 148 109 47 56 61 82 95 121 129 118 120 117 119 114 112 122 121 113 103 100 102 100 98 94 87 83 78 65 72 92 95 87 83 83 86 86 84 84 83 83 83 81 81 83 89 86 83 83 78 80 83 80 77 73 74 77 76 72 69 70 68 67 70 71 72 71 71 70 69
298 300 267 212 254 188 282 210 242 261 196 108 68 88 127 144 69 59 78 88 86 88 73 66 98 10 346 186 39 47 85 87 92 95 104 144 124 132 130 130 127 117 119 116 110 109 107 104 102 102 99 95 87 82 74 59 66 92 87 81 79 87 85 86 85 86 86 85 84 85 88 87 86 87 86 80 79 82 80 77 76 74 74 76 73 80 75 68 67 68 70 71 72 72 70 72 66
290 278 280 348 294 185 264 230 224 266 326 112 105 163 155 92 90 90 84 94 92 95 107 124 186 13 11 39 71 96 97 74 84 115 130 174 116 136 131 134 127 123 116 109 108 109 106 105 102 101 99 94 86 75 64 55 78 83 83 83 80 86 85 85 90 89 85 79 81 85 86 88 90 84 80 81 84 86 83 84 79 75 74 77 85 76 73 71 72 72 71 73 73 73 72 73 73
267 267 182 293 17 279 301 253 293 319 21 296 129 132 137 102 108 99 93 89 93 109 184 111 105 22 93 32 8 54 86 114 117 142 115 107 123 125 128 130 119 117 111 112 107 103 104 105 106 101 95 89 83 76 69 67 83 87 85 83 85 86 87 84 85 89 84 82 82 83 87 88 86 87 87 84 84 85 89 87 86 83 81 73 68 69 72 75 75 77 78 77 76 74 74 73 74
271 262 177 122 293 82 318 289 245 1 82 330 109 137 109 108 107 112 101 81 78 53 17 34 30 152 88 47 14 96 240 142 132 78 98 133 129 131 131 134 125 121 109 111 116 114 113 113 104 100 94 92 89 84 84 80 76 79 95 93 88 90 93 91 90 90 86 84 86 87 92 96 91 90 93 93 86 88 90 86 81 84 82 81 82 82 78 78 77 77 77 76 75 76 77 77 77
295 299 241 284 261 133 249 255 248 122 10 359 64 114 95 100 111 113 113 108 84 100 343 63 129 128 115 128 79 45 23 80 146 111 119 129 115 125 143 124 128 103 107 108 111 112 114 116 110 103 100 99 100 92 87 83 84 82 76 87 104 92 89 89 86 82 86 88 88 88 88 88 92 85 83 82 84 89 90 89 90 86 82 81 81 80 81 81 82 81 82 80 79 78 77 78 76
258 57 323 182 252 142 244 250 338 77 13 14 15 77 104 112 128 121 143 154 158 129 196 67 228 15 86 188 99 76 63 57 83 96 115 119 115 131 131 125 121 106 106 112 111 111 121 118 115 108 107 109 106 101 90 83 85 90 93 94 91 102 96 82 82 85 86 88 86 89 87 90 93 88 86 86 83 79 86 89 90 95 96 90 84 80 78 78 78 79 80 79 76 77 77 76 75
230 117 70 39 276 155 274 263 112 105 116 95 59 26 95 124 141 122 124 80 139 114 155 182 85 251 100 89 94 98 11 92 94 109 122 114 117 139 133 136 119 114 118 117 116 120 121 120 116 112 112 110 108 105 97 88 82 85 90 83 88 92 87 81 86 89 86 86 91 94 95 94 91 89 90 87 88 88 82 86 85 82 79 80 79 77 74 73 74 76 77 78 77 75 76 79 77
268 109 290 236 271 233 216 272 98 73 92 93 124 100 93 137 127 143 113 148 109 118 80 66 94 48 160 106 119 130 160 105 113 110 118 105 131 151 133 123 118 118 119 125 128 124 119 115 114 113 112 110 106 101 98 94 84 79 86 83 83 85 85 95 104 104 99 93 91 91 92 86 72 94 98 91 89 83 73 74 81 85 85 86 86 83 78 78 77 77 79 79 81 78 77 79 81
241 158 214 346 242 264 209 176 103 129 107 88 90 113 107 93 144 127 135 100 151 105 143 138 176 147 93 78 65 56 129 114 124 127 136 133 168 136 116 114 116 118 125 128 126 120 121 122 115 113 110 110 107 104 100 100 94 86 91 92 88 91 97 95 90 84 87 100 100 93 89 82 74 74 100 96 81 76 88 85 86 88 89 87 87 84 82 77 77 78 78 79 82 86 84 82 81
274 207 133 251 248 221 253 150 120 103 122 117 93 103 245 129 151 128 112 126 121 128 137 194 67 106 139 120 123 145 140 151 120 132 155 150 152 124 115 109 121 115 123 127 129 132 129 124 119 114 114 110 104 98 95 92 101 100 95 97 91 76 65 100 105 103 99 98 101 95 88 79 75 75 80 93 92 83 75 79 87 91 93 89 84 82 79 77 78 80 81 79 80 84 89 86 83
218 175 202 250 270 312 311 93 114 116 121 160 142 134 209 131 192 117 140 114 145 135 122 122 105 329 81 79 120 135 158 149 125 137 159 143 131 118 114 119 130 117 123 136 132 134 133 139 130 126 119 111 106 104 98 90 83 90 96 86 87 83 77 75 110 109 108 110 108 94 81 77 76 68 64 75 96 91 83 60 63 90 99 94 85 79 75 78 79 82 82 80 80 80 88 83 81
179 257 175 229 240 312 302 63 116 139 158 104 101 131 197 153 185 108 111 125 157 93 50 97 240 55 98 108 148 152 152 138 132 128 148 157 133 149 119 119 117 124 132 131 129 141 147 141 141 131 131 125 120 111 106 99 89 89 88 86 86 85 77 75 89 105 101 99 92 80 76 69 77 76 67 66 72 71 66 67 74 80 77 77 80 80 80 77 78 78 77 77 80 79 77 78 70
239 306 347 286 273 73 330 48 162 173 113 124 141 142 152 20 6 21 40 87 58 102 104 36 45 341 173 185 160 164 150 131 129 128 159 151 118 114 111 114 114 117 141 133 137 149 146 143 136 144 152 137 144 131 117 106 101 88 88 89 89 80 71 77 84 101 106 105 101 89 84 83 84 81 73 69 70 73 71 65 63 66 85 84 82 81 80 81 81 78 77 80 83 81 71 68 63
209 330 265 283 267 160 238 222 196 129 145 127 155 128 115 78 355 34 18 33 119 93 196 85 19 19 86 50 124 140 143 130 134 144 154 142 131 106 110 118 131 119 132 144 142 148 148 142 140 155 161 150 165 141 129 119 110 99 88 91 91 91 88 85 91 100 106 110 111 113 108 108 107 98 92 79 76 71 70 70 67 73 81 85 85 86 84 85 84 86 85 86 81 80 74 64 57
343 112 274 244 284 177 206 190 157 119 121 119 136 153 137 144 35 77 216 236 125 136 91 82 96 70 64 93 114 130 129 128 131 143 138 139 151 123 115 118 122 130 144 164 144 157 148 138 150 161 166 160 166 137 135 128 125 113 98 93 98 101 101 104 105 103 108 118 125 140 147 148 141 130 113 105 85 78 77 73 72 69 72 86 85 88 92 89 87 82 84 73 92 104 107 95 75
81 223 190 227 235 195 187 187 113 133 119 149 153 178 126 123 168 102 162 86 104 141 96 83 72 65 93 108 116 122 128 138 141 149 147 151 144 114 124 146 144 149 158 172 164 151 148 145 161 159 158 164 142 137 132 130 144 145 131 132 124 117 115 123 129 134 133 140 163 170 190 167 158 161 132 122 112 99 80 86 82 82 81 79 91 101 110 97 90 87 74 78 98 165 150 131 141
150 230 229 232 207 324 82 74 59 149 135 146 151 202 159 147 150 174 134 159 131 159 124 137 100 92 90 106 119 127 138 150 151 156 158 162 153 141 166 156 162 146 171 173 185 165 163 151 169 165 153 157 136 126 125 142 161 166 148 158 143 152 148 164 177 156 168 153 196 207 233 177 143 104 105 108 113 104 109 102 97 97 98 95 91 90 101 105 93 83 71 3 316 334 271 267 217
235 179 234 245 106 72 51 66 66 57 134 135 139 170 27 137 139 134 206 151 166 173 150 159 142 143 147 135 140 142 151 157 163 161 164 167 167 156 171 168 184 159 163 175 172 184 159 157 171 156 160 147 129 126 133 151 167 175 149 161 145 163 149 197 215 164 188 160 202 232 225 107 92 100 109 111 112 109 106 109 116 115 115 118 115 105 107 114 127 115 126 272 293 264 253 239 210
184 211 256 174 186 90 26 59 42 29 84 130 133 121 100 164 113 157 231 130 196 215 167 175 170 158 150 154 145 157 157 164 172 167 164 166 178 162 174 169 184 172 158 167 167 183 171 162 160 150 149 143 144 139 161 161 157 169 157 165 153 167 153 183 209 158 197 158 205 243 99 101 112 127 124 139 150 135 138 140 155 153 151 165 167 159 152 164 163 155 181 225 260 253 234 289 24
103 150 278 346 38 80 82 57 37 29 324 119 116 149 147 85 111 216 239 150 133 17 27 62 170 150 149 155 152 159 163 167 178 171 171 169 187 174 174 161 177 181 146 167 174 180 175 163 155 157 144 145 153 139 174 173 147 167 157 170 150 169 149 168 177 162 155 143 206 268 112 105 155 135 141 169 210 154 159 175 191 195 177 174 196 235 170 171 202 178 176 211 233 230 197 7 6
209 136 51 24 19 107 97 87 355 340 85 119 143 152 107 150 162 206 255 65 147 70 13 36 83 138 148 143 148 164 166 174 182 182 176 173 185 182 171 166 172 171 156 176 172 170 162 161 150 149 150 146 165 154 168 149 144 164 160 148 130 201 133 154 165 158 161 161 188 235 119 146 222 140 162 186 221 163 171 180 193 186 157 158 198 226 162 160 208 188 188 207 233 65 30 6 305
245 187 121 26 47 88 74 90 129 6 6 98 49 110 144 176 157 38 84 119 120 104 86 56 89 126 137 147 165 170 172 175 184 188 184 182 182 181 174 170 161 160 150 175 166 168 158 165 156 149 163 148 162 173 166 146 142 184 149 123 144 171 183 166 160 167 148 150 176 175 205 164 201 162 164 171 226 167 182 184 182 144 158 173 192 209 137 169 218 261 200 205 63 346 250 252 289
215 162 130 125 89 94 101 118 91 77 58 55 116 143 112 131 109 105 210 135 123 107 96 85 70 130 143 149 168 174 172 172 178 186 194 190 178 179 180 166 156 164 152 166 165 172 162 163 165 165 165 159 158 173 184 155 148 179 157 132 146 132 158 187 176 158 146 145 168 203 180 221 182 176 159 175 178 218 191 157 130 151 158 185 164 207 148 187 225 232 202 181 198 231 216 206 235
230 149 130 129 97 115 127 123 128 119 87 103 122 148 71 85 190 240 211 118 127 127 95 108 116 118 152 158 171 172 176 176 175 182 189 187 178 178 182 188 171 163 163 161 160 186 168 161 168 172 167 172 165 168 183 161 159 174 171 150 152 135 163 250 195 178 169 159 160 179 181 256 223 184 167 172 170 192 178 153 150 173 163 177 148 205 183 172 204 214 219 209 219 227 230 222 206
125 124 123 115 125 115 182 123 146 139 116 181 183 142 124 308 160 236 85 135 124 127 131 144 147 154 170 159 169 171 176 177 180 176 179 185 187 183 179 187 193 175 158 164 168 180 169 160 176 172 173 168 158 166 178 178 158 165 183 170 158 159 185 236 223 235 181 163 169 163 167 195 287 278 161 176 171 165 168 151 189 208 171 186 159 193 195 185 202 188 192 212 223 229 232 237 202
113 110 92 99 124 118 135 113 132 139 78 227 288 122 106 135 80 226 177 152 160 142 154 162 173 177 168 168 164 170 170 174 176 173 183 182 189 184 185 185 194 189 163 174 167 170 162 162 165 180 175 164 161 174 174 180 164 174 187 193 163 169 168 197 209 200 219 247 123 157 163 172 223 286 262 169 170 160 177 175 189 194 197 193 167 186 188 184 208 216 192 195 251 258 268 262 216
138 129 100 129 122 117 178 139 168 231 104 201 310 115 191 180 215 172 145 149 169 176 159 166 175 184 171 168 155 162 177 164 171 181 187 185 184 186 191 182 186 193 183 167 167 166 172 163 163 177 191 169 176 180 173 180 168 164 165 194 188 156 161 166 225 212 187 155 265 159 172 162 171 231 267 176 138 177 184 187 187 196 200 186 173 183 169 170 225 246 226 171 274 289 292 283 280
167 151 119 129 163 143 197 106 121 185 80 161 95 254 243 210 179 125 144 138 166 159 161 169 175 185 173 162 154 162 176 161 175 187 185 182 182 186 192 181 180 186 183 169 162 172 168 160 160 168 188 190 178 187 171 171 178 166 168 173 210 160 157 166 191 244 206 174 203 225 127 125 145 190 244 224 149 255 269 201 189 209 204 195 170 161 159 174 202 217 225 187 221 231 243 252 260
180 157 123 153 130 204 153 163 160 150 198 145 212 192 323 112 117 132 148 166 159 176 185 171 169 178 170 164 159 169 184 181 184 186 188 181 179 179 188 181 179 179 176 174 173 172 167 157 160 174 176 188 171 188 186 172 179 175 167 179 187 178 171 171 184 189 217 205 183 175 161 144 167 251 218 227 201 187 244 238 204 215 204 190 162 165 169 197 205 218 210 207 218 223 229 237 235
204 154 207 148 152 92 150 1 179 156 257 233 177 294 229 136 143 149 162 184 188 197 196 176 166 170 174 169 171 178 180 184 188 186 188 188 180 179 179 182 178 182 182 183 175 166 173 166 164 175 171 182 178 184 186 178 181 180 172 177 185 181 184 183 178 190 194 186 184 173 163 158 157 314 331 230 207 210 213 233 226 203 205 174 163 170 179 207 215 218 221 199 220 234 222 239 233
202 160 158 177 170 158 158 272 185 349 133 236 193 225 92 2 153 165 198 177 220 230 190 168 170 172 168 168 178 181 176 178 189 189 183 187 187 174 172 177 178 183 181 176 177 173 175 175 166 176 172 183 181 178 183 186 185 193 188 177 182 180 185 187 185 168 178 184 173 168 138 129 115 292 312 322 321 284 260 235 240 213 194 171 169 181 192 216 225 219 227 222 205 226 225 240 245
206 178 171 187 178 136 194 51 290 228 180 187 239 244 225 151 155 175 186 189 184 223 227 191 181 176 168 167 173 177 184 177 187 190 184 179 184 179 169 180 175 179 180 178 179 180 185 175 171 176 173 180 186 180 183 186 187 186 196 186 179 184 189 180 182 177 179 173 152 165 156 161 175 191 208 245 262 255 249 245 243 239 194 171 178 195 211 211 217 212 230 230 218 220 235 243 256
158 157 213 168 164 162 151 157 199 168 253 197 188 235 259 157 168 179 195 189 182 205 200 205 189 174 172 171 171 177 182 185 191 183 183 174 172 185 173 175 171 173 179 180 177 179 183 171 164 171 175 173 180 177 172 174 176 188 188 188 178 195 193 187 190 184 187 178 173 177 176 181 190 197 200 210 216 223 231 247 263 268 228 197 201 212 224 225 226 222 218 233 226 214 217 228 237
167 170 188 152 174 217 143 156 100 172 166 241 190 203 235 247 190 183 186 195 183 204 198 211 195 176 175 172 179 180 188 193 183 174 178 168 166 172 172 164 171 172 173 179 178 175 180 175 161 168 177 169 166 170 162 168 174 186 191 193 198 186 191 194 206 207 192 189 179 178 184 184 187 196 206 212 212 209 206 213 222 229 223 206 213 224 229 225 226 233 238 222 238 250 233 235 242
164 177 202 178 177 91 67 86 7 348 126 213 222 237 241 240 227 187 180 180 202 194 200 198 199 201 206 192 176 188 183 165 116 97 123 144 152 162 165 156 170 172 178 175 180 178 178 183 167 174 178 171 167 170 172 169 173 177 180 190 196 191 195 191 196 206 215 209 190 187 188 192 195 200 207 209 216 214 211 209 210 214 209 216 225 230 229 228 222 217 224 215 227 247 255 233 240
174 175 190 195 172 152 44 144 195 345 122 241 217 232 244 236 242 263 151 172 197 202 204 206 200 198 204 199 186 180 152 87 99 88 93 99 111 119 133 155 164 176 201 184 186 185 178 179 178 172 168 178 177 175 171 174 173 174 171 187 187 195 192 194 201 196 203 208 209 210 204 193 194 202 199 203 214 220 221 219 210 207 206 213 220 226 223 218 217 214 212 242 215 223 245 202 204
208 175 182 188 181 99 99 63 95 196 85 288 87 235 252 247 240 238 229 184 195 197 193 199 195 199 198 189 171 141 114 147 153 169 150 145 145 152 150 169 188 186 189 196 189 177 180 184 180 177 169 174 180 176 170 174 170 178 176 187 187 202 198 191 198 198 186 187 195 205 213 219 212 207 207 211 216 222 222 214 219 225 221 212 220 225 218 223 220 227 230 235 259 241 241 208 189
194 130 143 193 157 136 242 233 138 266 156 198 37 299 275 272 253 241 223 212 173 125 108 100 104 131 116 92 99 137 139 147 167 175 170 165 162 168 156 185 208 210 198 191 190 182 181 185 181 175 176 165 173 179 170 169 171 181 188 178 179 167 181 179 125 150 152 167 191 195 198 204 210 210 206 208 214 222 223 228 233 227 228 205 204 215 219 232 227 234 236 237 229 258 221 249 209
279 126 149 124 163 183 121 178 153 106 350 99 327 309 280 215 225 228 228 27 110 123 74 48 34 60 52 94 121 188 171 152 172 161 156 145 158 176 183 191 182 190 212 194 184 180 175 181 184 176 172 169 164 168 170 169 166 170 165 124 73 60 64 65 47 338 275 172 176 178 202 196 205 209 206 202 201 216 225 231 234 231 221 207 198 220 232 232 230 229 230 234 216 228 253 262 243
127 350 53 149 144 103 97 120 118 128 265 226 167 352 296 220 204 200 169 99 161 148 152 199 176 189 158 193 213 138 118 97 162 207 136 139 161 150 139 149 156 177 190 225 162 164 154 167 170 171 167 160 161 163 166 160 158 156 141 149 171 166 204 153 177 193 220 213 214 220 214 183 190 202 199 197 200 214 225 231 233 234 228 229 222 222 228 229 229 226 216 210 224 219 235 246 260
128 224 248 131 120 119 132 150 133 129 174 260 67 155 260 331 198 172 160 158 174 123 190 188 162 171 181 191 146 143 150 148 144 104 122 139 125 126 149 162 171 187 199 149 94 132 133 150 154 159 159 153 150 153 156 148 164 169 168 172 169 177 186 221 184 170 160 204 170 178 191 199 206 192 239 214 206 202 225 234 232 233 233 233 226 222 223 222 224 223 210 202 213 221 215 248 250
216 275 339 111 119 127 157 154 164 140 54 66 353 140 194 303 304 135 159 155 161 180 216 183 175 160 159 151 135 116 114 117 148 156 131 105 127 152 150 145 153 144 107 79 88 28 142 156 142 148 141 142 140 143 146 155 167 181 178 179 176 174 170 194 178 218 163 83 53 19 42 42 50 70 19 338 331 357 224 248 248 244 245 246 239 230 228 231 238 250 244 238 242 226 223 234 251
202 271 297 133 136 141 144 136 140 148 112 286 226 277 7 250 256 41 131 143 196 203 192 191 169 158 149 144 135 143 122 140 150 138 131 123 106 93 110 96 91 103 132 140 161 175 98 105 119 122 123 121 124 130 138 146 146 163 164 143 121 119 121 201 49 57 65 46 37 18 25 16 10 358 7 7 15 359 328 272 274 291 283 272 247 255 254 258 255 245 241 236 228 229 217 226 232
260 240 51 76 99 120 135 144 98 11 90 257 202 201 192 284 233 184 245 228 217 209 183 176 163 158 150 127 130 126 121 100 80 96 100 98 96 85 104 110 89 93 93 105 131 144 122 106 111 111 110 104 122 116 125 132 129 126 128 123 128 138 225 80 72 51 68 61 38 17 18 11 354 338 324 11 8 354 342 346 344 337 325 309 306 290 297 285 264 255 247 243 243 243 240 240 241
141 134 82 54 49 50 22 75 102 64 328 244 7 354 117 299 244 193 169 215 200 172 126 123 124 129 131 136 147 150 141 134 116 111 110 120 135 130 116 114 128 116 122 108 92 114 133 124 116 93 90 111 116 119 119 137 119 107 135 148 156 152 149 106 84 50 55 49 289 273 255 228 216 272 333 353 21 344 336 340 327 320 324 326 323 328 313 302 293 274 260 261 261 258 257 251 248
130 119 125 86 11 21 42 2 41 135 255 274 298 342 347 185 291 289 232 288 338 165 165 161 161 160 152 156 145 128 128 132 131 125 127 123 107 105 103 113 118 118 105 112 110 90 84 86 91 88 57 52 60 76 101 97 80 63 52 77 96 70 80 104 122 109 104 78 44 5 360 32 310 265 245 302 292 256 249 257 256 263 273 302 316 320 320 317 315 311 291 262 258 254 258 255 252
83 126 118 108 166 83 317 156 228 210 196 233 336 317 342 245 234 209 212 177 4 36 153 157 152 150 151 141 116 100 113 114 111 116 117 109 111 107 96 88 85 95 110 121 131 117 110 109 106 107 93 54 51 60 76 72 74 58 55 58 52 55 55 62 71 73 70 89 63 357 28 358 348 9 351 6 344 12 12 4 355 347 323 298 289 308 315 330 333 331 329 330 326 308 279 265 263
176 149 151 119 129 159 182 207 184 20 316 274 317 290 246 259 268 262 253 176 97 80 110 134 140 147 147 136 125 102 86 91 93 88 87 88 88 88 93 98 101 98 96 93 98 120 131 128 129 128 130 125 89 71 71 73 69 63 53 55 62 58 69 46 58 60 109 23 73 60 41 25 12 348 3 4 17 19 12 1 358 353 349 344 338 321 318 313 311 308 310 309 307 305 307 293 279
202 157 149 173 144 153 178 164 183 203 183 281 276 77 235 124 242 334 53 83 72 59 72 92 100 113 123 116 112 112 99 86 89 87 85 86 80 83 84 85 87 87 86 81 79 89 96 99 108 117 126 134 128 124 128 121 117 125 139 134 136 147 135 184 190 139 108 71 40 55 33 29 36 16 20 13 21 16 5 1 353 351 347 344 339 337 328 317 310 307 309 308 313 314 308 302 302
222 168 62 57 215 127 150 177 127 139 120 51 282 207 209 178 167 100 102 80 66 77 83 93 96 101 109 116 126 127 115 108 102 95 82 73 80 79 74 71 69 69 66 64 67 72 85 98 101 101 106 106 107 111 108 108 101 97 92 83 71 68 60 67 65 44 45 56 47 53 41 41 34 26 20 25 7 13 359 356 356 344 341 338 337 338 339 342 338 333 319 316 305 305 305 313 313
235 105 196 193 93 96 103 24 350 84 60 249 165 303 298 238 359 148 122 92 110 117 134 120 130 138 134 134 131 115 113 108 103 104 101 89 69 60 69 75 73 70 65 62 53 65 91 96 95 94 89 85 89 95 102 103 99 90 79 78 71 66 62 65 67 55 45 44 45 41 42 35 38 33 11 21 12 4 5 4 355 346 344 342 345 343 344 343 341 337 329 328 327 330 331 320 321
81 121 219 158 168 119 131 179 43 159 156 252 132 204 279 110 273 188 155 156 178 186 182 162 151 156 155 148 128 124 116 108 98 90 88 92 89 83 72 65 72 77 80 69 63 55 65 81 91 94 86 86 77 78 79 84 91 88 84 77 69 70 73 65 60 58 49 49 37 35 32 34 32 17 30 17 15 9 4 4 1 351 345 348 342 338 341 340 342 338 331 329 325 337 330 326 323
94 182 299 142 212 276 282 129 208 160 217 245 225 219 240 186 232 155 223 199 202 194 188 165 163 177 164 143 128 114 111 107 109 113 107 95 91 86 85 89 78 77 76 80 76 73 71 72 78 86 91 91 93 85 81 76 75 82 82 79 80 72 67 64 56 61 58 58 43 35 34 30 20 18 26 18 13 15 10 4 4 350 345 341 343 342 342 343 344 335 329 326 325 341 334 320 318
186 149 55 51 79 171 132 196 184 119 222 145 298 116 242 219 216 184 201 201 192 178 185 192 176 180 166 153 147 143 145 143 141 129 116 112 101 93 93 89 84 81 83 78 79 76 77 82 85 82 78 76 75 74 77 76 66 72 69 66 59 65 67 68 65 68 63 57 47 42 27 18 16 27 22 20 21 16 7 2 353 352 347 349 349 344 348 346 347 337 330 333 324 345 333 316 308
199 110 161 184 162 235 110 293 169 164 187 179 205 296 272 260 221 180 197 194 188 180 185 183 175 179 161 156 155 157 157 153 146 135 124 113 105 97 92 95 95 89 83 80 80 83 82 76 76 77 85 80 76 72 74 72 74 69 70 62 55 48 50 52 56 56 65 60 56 44 28 14 24 23 19 20 22 7 4 359 354 353 352 345 347 340 342 345 342 329 324 321 319 322 313 301 301
181 166 194 177 129 126 162 259 49 93 133 232 174 237 276 265 26 347 195 191 180 185 172 177 170 171 158 156 160 158 154 144 136 131 125 120 110 103 105 104 98 93 87 84 79 79 74 74 75 77 77 71 79 71 74 78 74 75 72 66 57 52 54 51 51 45 50 51 53 50 31 27 39 3 29 23 15 6 5 359 356 348 346 341 335 334 328 338 332 326 318 315 312 309 304 295 298